09:41
Airports
History
Links
Donate
Help keep this website running!
PayPal
Bitcoin
This page is community maintained. The information is intended for PC simulator navigation or reference.
Always use approved charts for navigation.
SBPL
SENADOR NILO COELHO
SENADOR NILO COELHO (SBPL)
Petrolina, Pernambuco, Brazil
(C)
Lat/Lng:9° 21' 44.69" S / 40° 34' 8.76" W
-9.362413 / -40.569099
Elevation:1263'ft / 385mMSL
ID / ICAO:SBPL
Runways:1
Longest:13-31
Asphalt 3,235m / 10,613ft
Controlled:Yes
METAR09:00 GMT 2018-02-24
Altimeter: 29.91
Visibility: 6.2 statute miles
Wind: 1 knots (from 090°)
Temp: 22°c / 72°f
Humidity: 100.0%

METAR: SBPL 240900Z 09001KT 9999 -RA FEW006 SCT015 BKN070 22/22 Q1013 RETS

(Powered by phpweather)
Airport Radio Frequencies
Tower: 125.7
Runway 13 / 31
Dimensions:3234.8 x 42.7m 10613' x 140'ft
Surface:Asphalt
Edge Lights:Low intensity
Runway 13 [A]Runway 31 [B]
Heading:109°TH 289°TH
Lat:
Lng:
9° 21' 27.45"S
40° 34' 59.01"W
9° 22' 1.92"S
40° 33' 18.5"W
User Notes and Comments
9° 21' 44.69" S / 40° 34' 8.76" W
Distance To
Airport ID:
Nearby Airports
4 Fazenda Mariad 14.6 NM
SILZ E 98°
(U) Agrovale 16.8 NM
SNAV SE 125°
(U) SOBRADINHO 18.7 NM
SNBD WSW 248°
(U) CASA NOVA 28.9 NM
SDFX WNW 299°
(U) JUAZEIRO 35.6 NM
SDKF ENE 66°
(C) Mina Caraiba 57.0 NM
SNMI SE 124°
(U) Afranio 59.7 NM
SNTG NNW 330°
VFR Chart
Flight Planning at SkyVector.com